Location: Centerville
(32.8776°N, 96.6203°W)
Time: 05:37:28
(UTC+00:00)

Cosmos 2233 Rocket - Pass Details

Date: 17 June 2021
Orbit: 954 x 990 km, 82.9° (Epoch: 29 July)

Event Time Altitude Azimuth Distance (km) Brightness Sun altitude
Rises 04:43:09 0° 358° (N) 3,637 8.0 -28.5°
Reaches altitude 10° 04:45:41 10° 1° (N) 2,691 7.0 -28.7°
Enters shadow 04:51:30 62° 69° (ENE) 1,073 4.1 -29.3°
